FENGYUN 1C DEB, 37594

Orbit data source: Space-Track

FENGYUN 1C DEB, 37594 is space debris in SSO originally from a launch on Mon, 10 May 1999 UTC launched from the Taiyaun Space Center, China (TSC). Fengyun 1C debris stems from the Chinese weather satellite Fengyun-1C, which was intentionally destroyed by a Chinese anti-satellite missile in 2007. This event dramatically increased the amount of space debris, with thousands of trackable fragments posing hazards to satellites and human spaceflight. The Fengyun 1C debris cloud has become a focal point in discussions about space sustainability and the need for international regulations to prevent the creation of new debris.

Loading next visibility...
Identifier
37594, 1999-025EKN
Orbit
SSO
Country
Flag of CNCN / PRC
Related business
Manufacturer
Unknown
Mission
Spacecraft
Bus & Motor
Unknown
Mass
Unknown
Launch date (UTC)
1999-05-10 (27 years ago)
Launch vehicle
Unknown
Launch site
Taiyaun Space Center, China (TSC)
Object type
Payload
Rocket body
Debris
Shape & HBR
Unknown shape, 0.1 m
Radar Cross Section
Small (<0.1 m²)

Expand to show TLE details & history
Last TLE update: 2 days ago

TLE from 2 days ago
0 FENGYUN 1C DEB
1 37594U 99025EKN 25346.05076849  .00000630  00000-0  36156-3 0  9995
2 37594  98.7348  15.4051 0085022 271.7365  87.4070 14.11116962777529
Epoch: 2025-12-12T01:13Z
TLE epoch observation values (Epoch: 2025-12-12T01:13:06.397Z)
Latitude
-0°
Longitude
-83.8695°
Altitude
856.193 km
Speed
7.426 km/s
True Right ascension
01h 01m 37s
True Declination
0° 00' 00"
Sunlit
Object was in daylight at epoch
Visualization orbit readout
Latitude
Unknown
Longitude
Unknown
Altitude
Unknown
Speed
Unknown
Apparent Right ascension
Unknown
Apparent Declination
Unknown
Sunlit
N/A
Visualization observer readout
Local Sidereal Time
18:09:58
Azimuth
Unknown
Elevation
Unknown
Doppler factor
Unknown
Orbital elements
Apogee altitude
914.202 km
Perigee altitude
791.245 km
Semi-major axis
7,230.86 km
Eccentricity
0.0085
Inclination
98.7348°
RAAN
15.4051°
Arg. of periapsis
271.7365°
True anomaly
88.3807°
Mean anomaly
87.407°
Eccentric anomaly
87.89381°
Mean motion
3.52987 °/min
Orbital period
101.99 mins
BSTAR
0.00036156
Loading maneuver chart data...
Computing Atmospheric mass density...

Documentation

Showing up to 5 results
|